Theta_e
326 326 325 325 327 327 329 341 347 340 342 350 353 357 360 360 360 364 364 360 361 362 363 365 363 363 362 360 360 361 359 353 350 350 350 351 350 348 348 347 347 347 344 343 345 347 348 350 350 352 353 353 353 353 353 353 353 352 352 351 351 350 350 349 349 350 350 351 351 349 348 347 347 347 347 346 346 346 346 344 344 346 347 347 348 349
324 326 327 327 329 328 326 329 330 326 328 339 354 357 358 360 361 364 364 359 360 362 361 363 363 362 362 361 360 361 359 356 355 353 349 350 350 349 348 347 347 346 343 343 344 346 348 350 350 351 353 353 353 353 352 352 352 351 351 352 351 350 349 349 349 350 351 351 350 348 348 347 347 347 347 346 346 347 347 345 345 347 348 348 348 350
324 326 329 327 325 324 324 324 324 326 325 334 356 359 356 362 362 361 364 359 358 363 362 362 362 362 362 360 359 359 359 361 362 359 355 351 350 350 349 347 346 344 344 344 344 346 348 349 350 351 352 352 352 352 352 352 351 351 351 352 351 350 350 349 349 351 350 349 348 347 346 347 346 347 347 347 346 347 346 345 345 347 348 348 349 350
324 326 328 325 322 322 323 323 323 325 321 328 353 358 356 362 361 358 361 357 356 359 360 361 361 362 362 359 357 355 356 361 361 360 362 357 352 350 348 348 346 343 345 345 344 345 347 348 350 351 351 352 351 352 351 351 350 350 351 352 351 351 350 350 351 351 350 349 347 347 347 347 346 347 347 348 347 347 347 346 346 347 348 349 349 350
326 326 324 323 323 323 323 323 322 323 320 322 341 356 359 361 359 359 358 355 355 357 358 360 358 358 361 360 359 356 355 358 359 361 363 361 356 351 348 349 347 343 344 345 345 346 346 347 350 351 351 351 352 352 351 351 351 351 351 352 352 351 351 351 351 351 350 349 348 348 348 348 348 348 347 348 347 347 347 348 348 348 349 349 350 350
328 324 322 324 324 321 323 324 322 323 320 319 325 342 360 364 362 362 358 355 356 356 357 358 354 355 359 361 361 359 358 358 358 361 362 361 361 356 350 348 347 343 343 344 345 346 347 347 349 351 351 351 351 352 352 351 351 351 352 352 352 351 352 352 352 352 350 349 349 348 349 349 349 350 349 348 347 347 347 348 349 349 350 350 351 351
326 322 322 325 325 323 322 323 324 322 318 319 321 326 351 367 364 361 358 355 355 354 356 357 354 353 356 359 360 358 359 359 358 360 360 362 364 360 353 349 346 343 341 342 344 345 346 348 349 350 350 351 351 351 351 352 352 352 352 352 352 352 352 352 352 353 350 349 349 349 350 350 350 350 351 349 349 348 348 347 348 348 348 350 351 352
324 322 322 323 324 324 323 322 323 322 318 320 320 326 352 367 364 361 358 355 356 356 356 357 355 353 353 357 361 357 358 361 359 358 359 361 364 362 357 352 346 341 341 342 344 346 346 347 349 349 350 351 351 351 351 352 353 353 352 352 352 351 352 352 352 352 352 350 350 350 351 351 351 351 351 352 351 351 350 348 348 347 347 348 349 352
323 322 324 324 324 322 324 326 325 321 320 323 328 340 359 365 362 361 357 355 356 355 355 355 352 352 353 356 361 359 358 360 360 358 358 359 361 362 361 359 351 342 339 341 343 345 346 347 349 349 349 350 350 350 351 352 353 353 352 352 352 352 352 351 352 352 351 350 350 351 352 352 352 352 352 352 353 353 352 351 351 350 349 347 347 350
322 322 325 323 323 324 324 327 324 320 321 328 341 352 354 354 354 354 355 355 354 352 353 354 349 351 354 356 358 360 358 359 360 360 360 359 359 360 361 362 358 345 338 341 343 343 345 347 348 348 349 349 350 350 351 351 351 352 353 352 353 353 352 352 351 352 351 351 351 352 352 352 352 352 353 354 354 355 354 353 353 352 351 348 346 348
322 324 329 324 324 325 324 325 320 324 334 342 351 352 348 350 351 351 355 354 351 350 350 350 350 350 351 352 355 357 359 360 361 361 361 360 359 360 361 362 362 350 338 340 344 343 345 347 347 348 349 349 350 349 350 351 351 352 352 352 353 352 352 351 351 352 352 351 352 352 352 352 352 352 353 354 354 355 355 355 354 353 352 350 348 348
322 321 327 329 328 323 321 322 318 323 343 356 359 353 349 351 352 353 354 353 351 350 346 348 351 347 344 349 353 355 356 359 362 362 361 360 359 361 361 361 364 357 344 340 345 344 343 345 346 347 349 348 349 349 350 350 351 352 352 352 353 351 351 351 351 351 351 352 353 352 353 352 351 352 352 353 354 354 354 354 354 353 353 352 351 350
323 323 325 327 328 324 320 322 318 322 342 358 357 351 349 350 351 352 351 349 350 347 343 348 350 347 347 350 353 356 354 354 358 359 360 360 359 360 360 360 365 365 353 343 345 347 343 344 345 346 348 348 348 348 349 350 351 351 352 352 352 352 352 351 351 352 352 352 353 352 352 352 352 352 352 352 352 352 352 353 352 352 353 352 351 352
321 323 324 322 323 325 321 321 318 322 342 355 350 346 350 350 348 350 349 345 345 342 344 350 348 348 352 353 355 357 356 358 357 357 359 359 358 360 359 360 364 365 359 348 344 346 345 343 344 346 347 347 348 348 349 350 350 351 352 352 352 352 352 351 351 351 351 351 352 352 352 351 352 352 352 352 352 351 351 351 351 352 353 353 351 350
318 320 325 323 323 324 323 322 322 329 345 353 351 348 347 345 345 347 347 344 345 345 346 348 347 350 354 354 355 356 356 359 361 357 357 358 359 361 359 362 363 362 362 353 345 343 344 342 344 345 346 347 347 348 348 349 350 350 351 351 351 351 351 351 351 351 350 350 350 351 351 351 351 352 352 351 350 350 350 350 351 352 353 353 351 351
318 320 329 326 324 324 323 323 326 338 347 346 345 347 343 342 343 342 342 341 345 349 349 348 349 353 354 353 354 356 355 358 360 357 355 357 360 362 360 362 363 361 361 357 350 344 343 342 344 344 345 346 346 346 347 348 349 350 351 351 351 351 350 350 350 350 349 348 349 351 351 351 351 351 351 351 350 351 352 352 352 353 353 353 353 353
316 320 329 326 325 327 326 325 327 336 343 339 338 343 340 340 346 344 343 344 344 349 351 350 352 353 353 354 355 357 357 357 359 357 354 355 359 361 360 361 362 362 360 359 357 350 343 342 343 344 344 345 345 346 347 348 349 349 350 350 351 351 351 350 350 349 347 346 348 350 350 350 350 351 350 350 351 352 353 354 354 353 353 353 354 354
317 318 326 325 324 326 325 325 326 327 335 338 339 341 331 329 340 346 348 350 348 351 351 348 351 352 352 355 357 359 358 357 358 358 357 356 357 359 360 359 361 362 358 359 361 356 347 342 343 344 344 345 345 346 346 347 348 349 349 349 350 350 350 349 349 348 347 347 348 349 350 350 350 350 350 351 352 353 354 354 354 353 353 353 353 354
317 317 328 330 324 325 326 325 322 320 328 336 338 337 328 325 329 334 343 348 347 350 353 349 348 351 353 355 358 360 360 357 356 357 359 359 357 357 358 359 359 360 358 359 361 360 354 347 344 343 344 345 345 345 346 347 348 348 349 349 349 349 348 348 348 348 348 347 347 349 349 350 350 350 351 352 352 353 353 352 353 354 353 353 352 353
322 317 324 328 321 321 327 326 321 320 324 327 328 327 327 329 330 332 339 345 345 348 353 349 348 351 353 354 358 360 357 355 355 355 356 357 356 356 357 358 358 357 358 358 359 359 356 351 347 345 344 344 345 345 345 347 348 349 348 349 349 349 348 348 348 348 349 348 348 349 348 349 350 350 350 351 352 353 352 352 352 353 353 353 353 354
323 317 320 329 324 320 326 329 325 323 322 322 321 320 321 324 328 331 333 337 345 350 350 350 352 352 350 350 356 358 353 352 352 353 354 354 355 356 355 356 357 357 357 358 358 358 355 352 351 348 345 344 344 345 346 346 347 348 348 349 349 349 349 348 348 348 348 349 348 348 348 348 349 349 350 350 351 352 352 351 351 352 352 353 353 355
322 321 321 325 321 317 325 329 325 324 325 325 324 321 321 322 325 329 328 333 345 349 346 349 353 352 349 350 353 353 351 350 349 350 352 352 353 354 355 355 355 356 357 357 357 356 353 354 354 351 348 345 344 346 346 346 347 348 348 349 349 349 349 349 348 348 348 349 350 349 349 348 349 350 349 349 349 350 351 351 351 351 351 352 353 354
332 333 323 322 324 323 323 323 321 321 323 326 326 325 326 325 326 330 331 336 345 346 345 349 351 350 348 350 351 349 348 348 347 347 348 349 349 350 351 353 353 354 355 355 355 353 352 354 354 353 351 349 346 346 346 346 347 348 348 349 349 350 349 349 349 349 350 350 350 350 350 350 350 349 349 349 349 349 350 351 351 351 351 352 353 353
336 334 323 323 333 335 328 325 326 326 324 324 322 323 325 326 327 332 339 347 347 347 350 349 349 350 350 349 349 346 345 345 344 345 346 347 346 345 347 348 350 352 353 353 353 353 352 352 353 353 353 352 351 349 347 347 348 349 349 349 349 350 350 351 350 351 351 350 350 351 351 351 351 351 350 350 349 347 349 351 352 352 352 352 353 354
326 330 326 320 321 324 323 322 322 325 326 324 321 325 332 339 340 337 343 353 349 346 347 345 347 352 351 348 346 343 343 343 342 343 344 344 344 344 344 345 346 349 351 353 353 352 352 351 351 352 352 352 352 351 350 350 349 350 350 350 350 351 351 351 351 352 352 351 351 352 352 352 351 351 351 351 350 348 348 350 351 352 353 354 354 354
330 331 330 323 319 321 325 326 324 325 325 321 324 332 338 344 347 342 342 347 345 342 343 345 350 353 349 346 344 342 342 343 342 343 342 342 342 342 341 342 342 344 347 350 352 351 351 350 349 350 351 351 352 353 352 352 352 352 352 352 352 352 352 352 352 352 353 353 353 353 352 353 353 353 353 352 351 350 349 350 351 352 353 354 354 354
341 333 334 335 330 328 334 339 338 332 323 318 323 334 341 344 348 346 341 341 344 344 346 349 351 352 351 347 344 343 343 343 343 343 341 341 340 339 339 340 340 341 341 343 347 349 349 349 348 348 350 350 351 352 353 353 353 353 353 353 353 353 353 353 353 354 355 355 355 354 354 354 354 354 354 354 353 352 351 352 352 353 353 353 354 354
345 328 330 333 325 322 328 331 330 327 321 321 326 331 337 343 348 344 337 337 342 342 346 351 351 351 352 348 343 343 343 343 343 342 341 340 339 338 338 337 338 338 338 339 341 344 347 347 347 347 348 349 350 351 351 351 352 352 352 352 353 354 354 354 354 354 354 355 355 355 355 355 355 355 355 355 354 355 354 354 354 354 353 354 354 354
341 326 324 324 318 318 321 320 323 328 326 331 340 341 339 342 347 347 344 345 346 341 343 350 351 351 350 345 342 342 341 342 343 341 339 338 338 338 336 335 336 336 337 338 338 340 343 345 346 346 347 347 347 347 348 348 349 349 349 350 350 350 351 352 353 352 353 353 353 354 354 354 355 355 355 355 354 354 355 355 355 355 354 354 354 355
334 329 328 327 320 318 321 320 323 331 330 329 336 343 346 348 349 350 350 351 354 350 347 349 350 350 348 343 341 340 339 341 341 339 338 337 336 336 335 335 334 335 336 338 338 339 340 342 343 343 343 343 343 344 344 345 346 346 347 348 348 348 348 349 350 350 350 351 350 350 351 351 351 352 351 352 353 352 353 353 354 355 354 354 355 354
332 330 330 335 328 317 321 324 323 326 328 325 326 330 336 345 348 349 349 349 352 352 348 348 351 350 345 340 339 339 339 340 340 338 338 337 336 336 335 334 334 333 335 336 337 338 339 339 340 340 340 340 340 340 341 341 342 342 343 344 345 346 348 348 349 349 349 350 350 350 350 349 350 350 349 349 349 350 351 351 352 353 353 353 353 352
335 334 333 342 335 319 318 324 327 327 325 323 325 323 324 337 346 348 349 348 348 349 348 349 351 349 343 339 339 339 339 339 338 337 337 336 335 334 334 334 333 332 333 334 335 337 337 338 338 338 337 337 336 337 337 337 339 339 340 340 341 343 344 345 345 346 346 347 348 348 349 350 351 350 350 350 350 350 349 350 350 351 351 352 351 350
336 340 338 335 329 321 318 323 330 331 325 322 325 321 322 338 346 346 348 347 345 346 348 349 349 345 340 338 339 339 339 338 337 336 336 334 333 333 332 332 332 331 332 332 333 334 335 335 335 335 334 333 332 333 334 334 335 336 337 339 339 340 341 341 341 341 342 342 343 344 345 346 347 348 349 350 351 351 351 350 350 350 349 350 350 350
335 342 343 334 326 322 325 330 334 333 325 322 324 322 322 337 347 347 346 345 343 343 345 345 343 340 338 339 339 339 338 336 336 335 334 333 331 331 329 329 329 330 330 330 331 332 332 331 331 332 332 331 330 331 331 332 333 333 334 335 336 336 336 336 337 337 337 338 340 340 341 342 344 345 345 346 347 349 350 350 351 351 351 350 351 351
337 341 343 339 328 323 329 335 333 328 326 326 330 329 328 334 340 342 342 341 340 341 342 342 339 338 338 338 337 336 335 333 333 332 332 331 330 328 327 327 327 329 329 330 329 329 328 328 329 329 330 331 332 331 331 331 332 331 331 331 332 332 332 332 332 331 331 332 334 337 340 341 342 343 342 343 343 343 344 346 347 349 349 350 351 351
339 338 341 338 327 322 329 331 327 324 327 332 334 332 334 339 341 342 343 339 337 338 339 339 338 337 337 335 334 333 332 330 330 331 331 330 328 326 326 327 328 328 328 328 326 326 326 326 327 328 329 330 332 331 330 329 329 329 328 328 328 328 330 330 330 330 330 329 330 332 336 339 342 341 340 338 338 338 338 340 343 345 347 347 347 348
338 336 335 332 326 325 327 327 330 333 333 335 332 324 326 333 336 343 346 339 336 338 336 336 337 336 334 333 332 330 329 330 331 330 329 329 328 325 324 325 326 326 325 325 325 324 325 325 326 327 328 328 328 328 328 328 328 327 326 326 326 326 327 328 329 330 330 330 329 328 330 334 338 339 338 336 335 336 337 339 340 341 343 345 345 346
327 328 330 327 326 333 335 329 329 332 332 332 328 322 321 321 324 338 350 344 338 337 333 334 336 334 332 332 331 330 331 333 334 331 328 327 326 324 323 323 324 324 323 323 323 323 323 325 325 325 326 326 325 325 326 327 327 326 324 324 324 324 325 325 325 327 328 329 329 327 327 329 332 334 334 333 335 338 340 341 341 342 343 345 345 345
323 329 334 329 327 335 341 335 330 328 327 329 329 326 322 319 324 339 350 346 341 336 332 334 334 332 332 332 331 332 334 335 335 331 328 326 323 322 323 322 322 322 322 322 322 322 323 323 324 324 325 324 323 323 324 324 324 324 322 322 322 323 323 323 324 324 325 326 328 328 327 327 328 329 331 332 335 338 340 339 340 340 341 341 340 340
334 335 331 327 329 334 335 332 331 330 327 328 331 328 321 320 330 341 341 340 341 338 333 333 332 332 332 331 331 333 335 336 335 329 325 323 321 321 322 321 321 321 322 322 322 322 321 322 322 322 322 322 322 322 322 322 322 321 320 320 321 320 321 323 323 323 323 324 327 327 327 327 327 328 330 332 335 337 336 334 334 334 334 333 333 333
337 336 329 327 332 335 333 328 326 328 328 326 329 328 321 322 335 344 340 337 338 336 334 332 331 331 331 330 332 335 335 333 330 326 322 321 321 321 321 320 320 321 321 321 321 320 320 320 320 320 320 320 320 320 320 320 320 319 319 319 319 319 319 321 322 322 322 323 325 326 326 327 327 327 329 332 335 337 335 333 332 332 331 331 330 330
328 328 328 330 325 324 334 336 327 325 327 327 328 328 324 326 334 340 335 331 333 335 333 331 329 329 330 331 332 333 331 328 325 322 321 321 321 321 320 319 320 320 320 320 319 319 320 319 319 320 319 319 319 318 318 318 318 317 318 318 318 318 318 319 320 320 321 321 322 323 325 326 326 327 329 331 332 333 332 330 329 329 329 329 330 330
324 323 327 329 321 321 333 337 328 323 323 325 326 323 322 325 330 333 330 326 329 334 332 329 330 329 328 330 329 327 325 324 322 321 320 320 321 320 319 319 319 320 319 319 318 318 319 318 318 318 318 317 318 317 317 317 317 316 316 317 317 317 317 318 319 319 320 320 320 321 322 325 325 326 328 329 328 327 326 326 325 324 324 326 328 329
325 328 330 329 324 327 334 331 326 325 325 325 323 319 320 323 325 332 334 329 329 332 331 330 331 329 327 327 325 323 323 323 322 320 321 321 320 319 319 319 319 319 318 318 318 318 317 317 317 316 316 316 316 316 316 316 315 315 315 315 315 316 316 316 317 318 319 319 319 319 320 323 324 325 326 327 326 325 325 324 324 323 322 322 325 327
321 326 330 329 324 324 327 327 327 327 326 325 323 322 325 326 325 329 334 330 328 331 332 332 331 328 325 323 322 323 323 322 321 320 321 321 320 318 318 317 318 318 318 317 317 317 317 317 316 315 315 314 314 314 314 314 313 313 314 314 315 314 315 315 316 317 318 318 318 318 319 321 323 323 323 324 324 324 325 325 324 323 321 320 322 324
322 321 323 325 323 322 323 324 326 328 327 327 326 323 324 325 325 326 329 328 328 328 329 329 328 325 323 321 321 323 322 320 320 320 320 319 318 316 316 317 317 318 317 317 317 316 316 316 315 314 314 313 313 313 313 312 312 313 313 313 313 314 315 316 316 317 318 318 318 318 318 320 321 321 321 322 322 322 324 325 324 323 322 322 321 322
327 324 323 324 326 327 327 326 328 329 325 325 328 327 325 326 325 324 325 325 325 326 326 326 327 326 324 322 321 321 320 319 320 320 319 318 317 315 315 316 316 317 317 316 317 316 316 315 314 314 313 313 313 312 312 312 312 312 312 311 311 311 313 315 316 317 318 318 319 318 319 319 319 319 320 320 321 322 323 325 325 324 323 323 322 322
325 324 323 325 329 327 323 324 328 328 323 322 327 328 326 326 326 323 321 320 321 322 322 324 329 330 325 321 321 321 320 319 319 319 319 317 315 314 315 316 316 316 316 316 316 316 315 314 313 313 313 313 312 312 312 311 311 311 310 309 309 309 311 314 315 316 317 318 319 320 320 320 320 320 320 320 321 321 321 323 325 325 325 324 322 323
324 323 320 323 328 326 323 324 327 328 326 326 326 325 324 325 326 324 321 318 318 319 318 319 323 323 319 319 322 323 322 321 318 317 317 316 314 314 315 315 316 316 315 316 316 315 315 314 313 313 312 312 312 312 311 311 311 310 309 308 308 309 311 313 315 316 317 319 319 320 320 321 321 321 321 321 321 321 321 323 325 326 325 324 323 323
326 327 323 324 329 330 330 328 326 327 329 326 325 326 325 324 327 328 323 320 320 320 319 319 319 317 316 317 318 320 322 321 318 316 316 315 314 314 314 315 315 315 315 315 315 315 314 313 313 313 313 312 312 312 311 311 310 309 308 307 308 310 312 313 314 315 317 318 319 319 319 320 321 321 321 321 321 322 322 323 324 325 325 324 324 324
325 326 325 327 330 327 326 326 326 328 329 324 322 326 326 325 329 331 326 324 324 320 317 319 320 318 318 317 315 317 319 317 315 315 315 314 314 314 315 315 315 314 314 315 315 314 313 313 313 312 312 312 312 311 311 310 309 309 308 307 307 309 311 313 314 315 317 318 318 317 317 318 319 319 320 320 320 321 321 322 323 323 323 322 322 323
Wind_Speed
4 3 2 3 5 5 6 7 6 4 4 6 5 4 5 4 1 2 4 7 7 4 6 5 4 6 6 8 9 5 5 9 10 10 9 8 9 9 9 9 8 9 9 13 17 18 20 19 18 19 19 20 19 19 20 21 22 22 22 21 20 20 19 19 18 17 17 16 15 14 14 13 13 13 12 12 13 13 12 12 12 11 10 9 8 7
3 4 5 5 8 7 6 6 5 4 4 4 5 5 5 4 3 2 5 10 5 1 5 5 5 7 7 8 7 4 4 8 7 8 10 10 10 9 10 10 9 8 7 9 13 16 19 18 18 19 19 21 21 21 22 22 22 22 22 21 20 21 20 20 19 18 18 17 16 15 15 14 14 13 12 12 13 13 12 13 13 12 10 9 8 7
1 4 7 6 6 4 3 4 5 5 4 4 3 5 4 3 4 3 4 7 2 2 4 7 6 6 7 7 5 4 3 4 2 2 6 9 11 9 10 10 9 7 6 7 10 14 18 18 19 19 20 22 22 22 22 22 23 23 23 21 20 21 21 21 19 18 17 15 14 13 12 13 13 12 11 10 12 13 12 13 14 13 11 10 9 8
2 4 5 5 6 5 3 4 5 5 3 3 3 3 3 5 4 2 3 5 5 2 3 7 6 4 6 6 4 2 1 1 2 2 3 5 9 10 11 9 9 9 8 8 9 11 16 18 19 20 20 21 21 21 22 23 24 24 23 22 21 22 22 21 19 17 15 14 14 13 11 11 11 11 10 10 11 13 14 14 14 14 12 11 10 9
4 4 3 5 5 6 4 3 5 5 1 2 4 4 3 7 4 3 7 7 5 2 3 6 5 3 6 6 5 4 2 1 1 2 3 3 5 7 8 7 8 9 9 10 9 10 14 17 19 21 21 21 21 23 24 26 26 25 24 22 21 21 21 21 18 16 16 15 16 15 12 11 11 10 11 12 13 14 15 15 15 14 13 12 11 10
5 5 4 6 3 4 5 3 4 5 3 3 3 6 7 9 5 9 13 8 3 1 3 6 4 2 6 9 8 5 5 4 2 0 2 4 4 5 6 7 6 7 8 10 11 12 15 18 19 20 21 21 22 24 26 27 27 26 25 23 22 21 21 20 18 17 17 17 18 17 15 14 13 11 13 15 15 16 16 15 15 14 14 13 12 10
3 2 5 6 4 4 4 3 4 5 4 2 5 7 9 9 9 13 14 8 2 2 4 5 2 1 3 8 9 7 7 7 4 4 5 4 4 5 7 7 6 7 7 8 10 13 15 18 18 19 21 24 25 25 26 25 26 26 25 24 24 23 21 20 19 19 19 19 19 18 17 16 15 15 15 16 15 15 15 14 14 14 14 14 12 11
2 1 4 5 5 4 3 3 5 6 6 3 4 7 11 10 11 13 12 6 2 3 3 3 1 2 1 4 8 8 7 7 7 8 7 5 4 5 7 7 7 9 8 9 9 11 15 19 20 22 24 27 26 25 25 25 26 26 26 25 25 23 22 20 20 20 20 20 19 18 17 17 16 15 15 15 14 13 12 12 12 12 13 14 13 12
2 2 3 5 4 3 5 5 6 7 5 4 2 7 10 9 9 9 7 4 3 4 3 5 3 2 1 1 6 9 9 9 10 10 10 8 6 5 5 6 8 9 9 10 10 12 16 20 23 26 27 27 25 24 26 27 26 26 25 25 25 24 23 21 19 20 20 20 19 18 18 18 16 15 14 13 13 12 11 11 11 11 11 13 14 13
2 4 6 6 5 5 6 6 8 8 4 2 6 10 8 8 7 4 3 3 4 2 3 8 6 2 1 2 5 8 10 11 11 9 9 8 6 5 5 4 6 8 8 9 11 15 19 23 26 27 26 26 25 25 26 26 25 25 25 26 26 25 23 21 20 20 20 20 19 17 17 17 17 16 15 13 12 12 11 11 11 10 11 11 13 14
4 3 4 4 5 7 6 6 7 8 7 4 10 12 10 8 7 5 3 3 4 2 3 10 9 2 1 3 4 6 5 8 9 8 7 7 5 5 4 3 4 6 8 8 9 14 19 23 25 24 24 25 24 24 24 24 25 26 26 27 27 25 23 22 21 21 20 20 19 17 16 16 17 18 17 15 14 14 13 12 12 11 11 11 12 13
5 2 2 4 5 6 5 2 1 5 7 6 6 6 7 4 4 4 3 3 3 3 3 8 8 3 0 3 3 4 2 2 7 9 11 10 7 5 4 3 3 4 7 8 8 10 13 15 17 19 21 22 22 23 24 25 26 26 27 28 28 26 25 24 23 22 21 20 19 17 16 16 17 17 17 16 16 15 14 13 12 12 12 12 12 12
3 3 4 4 3 6 6 3 2 3 4 5 5 5 6 2 2 3 1 1 2 3 3 6 8 2 2 3 2 4 5 3 6 9 11 12 10 7 5 4 3 3 6 8 8 8 9 12 15 18 19 20 22 25 26 26 27 27 28 29 29 29 27 26 25 24 23 22 20 18 16 15 15 16 16 15 15 15 15 14 13 13 13 13 13 13
3 5 3 2 2 4 8 5 2 3 3 6 7 5 5 3 2 2 1 1 2 4 3 4 6 1 3 1 1 4 4 3 5 8 10 12 10 7 5 5 3 2 4 7 8 8 9 13 17 20 21 22 24 26 27 27 27 27 27 29 29 29 28 27 26 25 25 24 22 20 18 15 14 15 15 14 13 14 14 14 14 13 13 13 13 13
3 4 4 5 3 4 8 7 7 7 6 6 5 5 5 5 4 3 4 3 2 1 2 3 3 2 1 0 3 2 1 2 2 4 9 10 7 6 5 4 3 1 1 4 8 8 11 16 19 20 22 23 25 25 26 26 26 26 27 28 29 28 28 27 26 25 25 24 23 21 18 14 13 14 14 12 11 11 13 13 13 13 13 13 13 13
3 5 7 4 2 6 8 6 7 9 6 4 2 5 4 5 5 4 2 3 3 3 2 1 1 2 1 1 3 2 4 3 2 4 9 10 7 7 5 4 4 2 1 3 6 8 11 17 19 20 22 23 23 24 25 26 27 27 27 28 28 28 27 26 25 24 23 23 23 21 18 14 13 14 13 12 11 11 11 12 12 12 12 12 12 12
1 4 6 3 1 6 9 7 7 8 5 2 2 3 2 2 7 5 1 1 3 3 1 0 1 1 1 2 2 4 6 5 3 4 8 10 8 8 7 5 4 3 1 2 4 6 10 16 19 21 23 23 22 22 24 26 28 30 29 28 27 26 26 26 25 23 22 23 23 21 18 15 14 14 14 13 12 11 11 11 11 11 11 11 11 11
2 4 6 2 3 6 5 7 5 4 6 5 4 5 2 3 4 4 3 2 3 2 0 1 2 2 1 1 2 5 7 5 4 3 7 8 8 8 6 6 5 4 3 2 3 4 8 14 18 21 22 24 25 25 26 27 28 28 29 28 27 26 26 26 25 23 22 23 23 22 19 16 16 15 13 13 13 12 11 10 11 10 10 10 10 10
2 2 7 4 4 3 1 7 4 1 2 4 5 6 5 3 1 1 3 2 2 2 2 1 3 2 3 2 2 5 7 5 4 3 5 7 8 7 6 6 6 5 4 3 3 3 5 11 16 20 22 23 24 25 25 25 24 25 26 27 27 27 26 25 24 23 23 23 23 23 21 18 17 16 15 14 14 13 12 11 11 10 9 8 9 10
2 1 5 5 2 1 3 3 4 1 3 4 5 5 3 2 4 3 2 3 4 3 2 1 2 3 3 2 2 6 7 6 5 3 3 5 6 6 5 6 6 5 5 4 3 2 4 8 13 18 21 23 24 25 24 23 23 24 25 25 25 24 24 23 23 23 23 23 23 23 22 20 19 18 17 16 16 15 13 12 11 11 10 9 9 10
2 2 3 5 3 1 1 2 6 7 4 4 5 4 1 2 3 3 2 1 3 4 3 2 1 4 2 2 2 6 7 6 6 4 2 2 4 5 5 5 5 5 5 5 4 2 3 5 8 13 18 21 22 23 23 24 25 24 24 23 23 23 23 23 23 23 23 23 23 23 23 22 21 20 19 19 18 18 15 13 12 12 12 11 10 10
1 2 2 3 2 2 4 3 5 7 7 6 6 6 4 3 4 4 1 2 2 4 4 4 2 3 1 2 1 5 6 6 7 5 5 4 3 3 4 5 5 5 5 5 5 4 5 5 5 9 15 19 21 22 24 25 25 24 24 23 22 23 24 24 24 24 23 23 23 23 23 23 22 21 20 20 20 20 18 15 13 12 13 13 12 11
2 3 2 3 2 5 6 5 2 4 5 5 4 4 5 4 5 6 4 2 2 3 2 3 1 2 2 2 1 6 7 6 6 6 6 7 6 5 4 4 5 4 4 5 6 7 7 6 6 7 10 15 19 22 23 24 24 24 24 24 22 23 24 24 24 24 23 23 22 22 22 22 21 21 21 20 21 22 20 17 14 13 13 14 13 13
0 3 2 2 3 4 6 4 2 2 4 4 2 2 4 4 3 5 6 4 4 3 2 3 1 2 1 1 2 6 7 7 7 6 7 7 7 7 7 5 5 5 7 7 6 7 9 8 7 8 9 9 12 16 19 21 23 23 23 22 22 22 23 23 23 23 23 23 22 21 21 21 21 20 20 20 21 22 22 19 16 14 14 14 14 14
0 2 2 2 2 4 3 2 3 3 2 3 1 1 2 5 7 6 3 4 3 4 4 4 2 2 2 2 4 6 6 7 8 8 8 7 7 6 6 5 4 3 5 6 6 7 8 8 8 9 10 9 10 12 15 17 19 19 20 20 21 20 20 20 20 20 21 22 22 21 21 21 22 21 20 20 20 21 22 21 19 17 16 15 15 15
2 2 2 4 4 3 4 3 3 2 0 1 2 1 1 6 9 6 4 4 2 4 4 4 3 3 5 6 7 7 6 7 9 9 9 8 7 6 4 4 5 4 2 2 5 7 7 7 9 11 11 10 10 11 12 13 14 15 16 17 19 20 20 19 18 18 18 19 19 20 21 21 22 22 22 21 20 20 20 21 20 20 18 18 17 17
4 3 1 5 6 5 6 6 5 2 3 1 3 2 1 3 6 7 5 3 4 5 2 3 5 8 9 9 9 8 7 8 9 9 9 8 7 6 4 5 6 6 5 4 4 6 6 7 9 12 12 11 10 11 11 12 14 15 15 14 15 17 18 18 17 16 16 16 16 17 18 19 20 21 21 21 20 20 20 20 20 21 20 20 19 19
4 3 2 3 4 1 4 6 5 1 4 3 4 3 1 1 4 7 5 5 8 8 2 5 7 12 12 11 11 10 8 7 8 9 9 8 7 6 5 6 8 8 8 7 7 6 7 7 9 12 14 13 13 13 13 12 13 15 15 14 13 13 13 14 14 15 14 14 15 17 17 18 19 19 19 18 17 18 19 19 20 20 21 21 21 21
5 2 4 1 5 5 4 5 3 3 4 4 5 4 1 1 3 6 4 4 7 6 4 8 12 11 10 12 12 11 9 7 7 8 9 9 8 7 7 8 9 9 8 8 8 7 7 7 9 13 14 15 17 17 15 13 12 12 11 11 10 10 9 9 10 11 11 11 12 13 14 15 16 17 17 16 14 13 15 16 18 19 20 20 20 20
4 2 4 0 4 8 9 9 6 5 7 7 8 7 5 4 4 6 5 4 6 4 6 13 13 7 8 11 11 9 7 6 7 8 9 9 8 8 7 8 10 8 7 8 8 8 8 9 12 16 17 17 17 17 17 16 15 15 14 10 8 8 8 8 8 8 7 7 7 8 9 11 12 13 14 15 15 13 12 13 14 16 17 18 18 18
3 2 5 1 4 6 8 10 9 4 9 11 9 9 8 7 6 6 5 6 7 6 8 14 12 6 5 9 9 8 8 7 8 9 9 8 8 8 9 8 8 8 7 8 8 8 9 11 14 17 18 18 19 18 18 18 18 18 18 16 13 12 10 9 8 7 6 5 4 3 4 5 6 6 8 10 12 13 13 12 12 13 14 15 16 16
3 1 4 4 5 4 7 9 10 7 7 11 9 9 8 5 3 2 1 2 5 10 12 11 8 6 6 9 10 9 9 9 10 10 9 8 8 9 9 8 7 7 8 9 9 9 9 11 13 16 18 19 21 21 20 21 22 22 21 20 19 17 16 14 14 14 14 14 13 10 8 6 6 5 3 2 6 9 10 11 11 11 11 12 13 14
2 3 1 3 4 3 7 8 7 6 6 6 4 4 3 1 2 1 3 3 6 12 11 6 5 7 10 12 12 10 10 10 9 8 8 8 9 9 9 8 8 7 8 10 10 9 9 11 14 17 19 20 22 23 22 23 24 23 22 22 20 19 19 19 18 18 18 17 17 15 14 12 12 13 11 8 5 6 8 9 10 10 10 10 11 12
2 4 2 1 3 2 9 8 6 5 4 2 6 5 4 3 5 5 5 5 3 4 4 4 7 11 11 12 13 12 9 8 7 6 6 7 8 9 8 7 7 7 7 9 9 9 11 14 16 19 20 20 22 23 22 23 23 22 22 23 22 22 22 21 21 21 19 17 16 14 12 11 11 11 10 8 6 5 5 6 7 8 8 9 9 9
3 3 2 1 3 1 5 7 5 2 2 5 6 3 3 6 10 10 8 7 5 2 8 11 11 12 11 10 10 10 9 8 8 7 6 6 7 9 9 7 7 7 7 8 8 10 13 17 18 19 20 20 20 21 21 22 23 23 23 24 24 24 23 23 24 23 21 20 17 14 13 12 12 12 10 8 7 6 5 4 3 4 5 5 5 4
3 3 2 2 2 1 3 4 2 3 5 5 6 5 3 5 7 8 8 7 6 2 9 13 11 12 12 10 9 9 10 10 8 6 4 5 5 6 8 7 7 6 6 8 10 12 16 20 20 20 20 20 21 21 21 22 23 23 23 23 24 24 23 23 23 21 20 19 18 17 16 14 14 14 14 12 11 11 9 7 4 2 1 1 0 2
5 3 2 3 2 2 3 1 2 2 3 4 4 4 1 0 1 3 4 3 5 2 7 13 13 13 13 11 10 10 11 11 8 5 3 4 5 5 7 8 9 9 10 13 15 17 19 21 21 21 22 22 21 21 20 20 21 22 23 22 22 23 23 23 22 20 18 17 17 18 17 16 15 14 14 14 13 13 11 8 5 4 2 1 2 4
4 3 3 3 1 2 4 2 3 4 2 4 5 6 4 3 3 3 5 2 4 1 6 13 16 15 13 13 12 11 10 9 6 2 0 3 5 6 8 10 13 14 14 17 18 19 20 22 22 22 21 21 21 20 18 18 18 20 22 22 21 21 21 21 20 19 18 16 16 17 17 17 17 16 15 14 14 13 11 9 8 6 5 4 5 7
6 4 4 5 2 2 5 3 1 1 2 5 6 8 7 4 2 4 5 4 3 3 5 10 15 15 15 15 14 12 9 7 5 4 4 4 6 8 9 10 13 15 15 17 19 20 20 22 22 21 20 20 19 17 16 16 16 19 21 21 20 20 20 19 18 17 17 15 15 15 15 17 17 17 16 14 14 15 15 15 14 12 11 11 11 11
6 5 4 5 3 2 4 3 2 2 2 4 6 8 7 4 3 6 4 5 5 6 5 9 14 14 14 14 12 10 8 7 7 7 6 8 9 9 11 13 15 17 17 17 19 20 20 20 20 20 20 19 17 15 14 14 15 18 19 19 19 19 19 17 16 15 14 13 13 14 15 16 17 16 16 14 13 15 17 17 17 16 16 15 14 13
4 4 3 4 3 3 3 2 1 2 3 4 5 7 7 4 6 6 2 6 6 7 6 9 13 13 14 14 11 7 5 4 8 10 10 11 10 10 12 14 17 19 20 20 20 21 20 20 20 20 19 17 16 14 13 13 15 17 17 17 18 18 16 15 13 12 12 12 12 13 14 15 15 15 15 15 13 13 14 15 16 16 17 17 16 16
2 2 2 2 3 2 3 3 1 2 2 2 5 7 3 2 2 3 4 4 5 8 8 8 10 12 13 11 8 5 5 7 11 13 12 12 11 11 13 15 16 17 19 20 21 22 22 22 20 20 18 16 15 14 12 13 16 16 15 16 17 16 13 13 12 11 11 11 11 12 13 14 14 14 14 14 15 14 14 14 14 15 15 15 15 15
1 2 1 0 1 1 2 3 2 2 2 3 5 4 2 2 3 5 2 1 2 7 9 9 9 10 10 8 6 7 9 12 13 12 12 11 11 13 16 17 17 17 18 19 20 20 22 22 20 20 18 16 15 14 13 14 16 15 15 15 15 13 11 11 11 11 11 11 11 11 11 12 13 13 12 12 13 13 14 13 13 14 14 14 13 13
1 2 1 2 2 2 2 1 1 4 4 4 3 1 1 1 3 4 4 2 2 4 7 7 6 6 7 8 9 10 12 13 12 11 11 11 10 13 16 17 18 19 18 19 20 20 21 22 21 20 18 16 15 14 12 13 14 14 14 13 11 10 9 9 9 9 10 10 10 10 9 9 10 11 11 10 10 11 12 13 13 14 14 13 13 14
1 3 3 2 1 2 3 4 4 4 4 4 2 3 4 4 1 3 4 3 3 3 5 6 6 6 7 9 11 12 12 13 13 12 12 11 10 13 16 17 19 20 20 20 21 20 21 21 20 19 18 15 14 13 12 11 11 11 12 10 9 8 9 8 8 8 8 9 9 9 9 8 8 9 10 9 9 9 10 10 11 13 13 13 13 14
2 2 3 2 0 0 1 2 3 3 4 5 3 2 3 4 2 1 2 3 2 2 3 5 5 6 6 7 9 10 10 12 12 11 11 11 11 13 16 18 19 21 22 22 21 21 21 21 19 18 17 15 13 11 11 11 10 11 10 7 7 7 7 7 7 8 8 8 8 8 8 7 7 8 8 8 9 9 9 8 8 10 11 12 12 13
3 2 3 2 2 2 1 3 5 4 4 6 6 5 5 6 5 4 3 2 3 4 5 7 8 8 6 4 6 9 10 12 13 11 9 9 10 13 16 18 19 21 23 23 22 22 21 20 19 18 17 15 12 11 10 10 10 10 8 8 8 7 6 6 7 7 8 9 8 8 8 8 8 8 8 7 7 8 8 7 6 7 9 10 10 11
1 2 2 2 2 2 2 5 5 4 3 5 5 4 5 6 6 6 5 3 5 6 7 9 10 8 7 6 5 6 7 7 8 11 10 8 10 13 16 18 20 21 22 23 23 22 21 20 19 18 17 15 12 9 9 9 9 8 9 10 10 8 6 5 6 7 8 9 9 9 9 9 9 8 8 8 7 7 8 7 4 4 6 7 8 9
1 2 1 2 3 2 2 3 3 2 3 6 7 5 4 5 4 6 6 5 6 7 7 8 7 7 9 9 9 9 8 4 2 6 9 9 10 13 16 19 21 21 22 24 23 22 21 21 20 18 17 15 12 9 8 8 7 8 10 11 10 9 7 7 6 7 8 9 10 10 10 10 10 9 9 9 8 6 6 6 4 3 4 5 6 7
3 2 1 3 3 1 3 2 0 2 0 4 6 6 6 4 4 6 7 6 7 6 5 7 7 6 9 14 16 15 12 8 9 10 9 10 13 17 19 21 21 21 22 23 23 22 21 20 19 18 17 15 11 9 7 7 7 8 10 10 10 9 8 8 8 8 8 10 12 12 11 11 11 10 10 10 10 8 7 7 6 4 4 4 4 5
2 2 2 3 3 2 4 4 3 4 2 3 4 5 5 4 6 7 6 5 6 5 5 6 6 6 7 11 16 18 14 13 16 16 12 12 18 21 23 24 24 23 23 23 23 23 21 20 19 18 17 15 12 9 8 7 7 7 9 10 9 8 8 8 9 9 10 11 11 11 11 11 11 11 10 10 10 10 9 8 7 5 5 5 5 5
Wind_Direction
137 163 204 177 198 198 186 183 167 154 128 132 132 117 131 124 124 180 145 155 161 150 161 155 137 149 151 159 155 129 162 185 182 175 175 180 181 182 184 187 190 197 208 205 201 200 197 194 187 182 181 181 184 189 190 189 188 187 188 191 192 191 191 193 194 193 194 196 196 198 198 195 196 197 198 197 197 200 200 198 196 190 185 183 182 180
122 177 219 204 200 201 184 171 143 101 85 110 135 142 139 131 134 148 154 162 169 119 152 142 128 156 162 159 151 92 143 183 184 181 182 183 186 186 187 188 189 197 202 193 192 193 192 189 184 180 178 180 183 186 189 189 188 187 189 192 191 188 190 194 193 191 191 194 194 194 193 191 189 191 194 193 192 194 197 198 197 195 191 189 188 189
114 213 230 214 195 178 117 113 118 111 95 87 112 137 135 130 114 108 143 141 112 20 145 149 141 161 162 146 124 88 140 167 136 217 202 188 187 189 191 188 187 192 189 184 183 183 184 184 182 180 181 184 185 185 187 188 187 187 189 192 191 187 190 192 192 191 189 189 191 192 190 186 185 190 195 197 196 195 197 197 197 198 196 196 199 200
174 237 229 191 161 140 100 93 111 108 95 94 119 132 149 170 152 133 135 87 47 9 145 147 139 156 152 118 111 153 254 141 115 315 282 203 194 194 194 189 185 185 181 183 181 178 179 178 179 181 184 184 182 182 185 186 186 187 189 192 190 188 190 190 189 190 188 185 186 188 188 185 187 192 194 197 198 198 198 197 198 201 201 203 206 205
218 242 164 130 137 143 129 125 133 129 203 240 169 157 155 181 183 103 129 111 71 50 112 135 130 177 169 150 166 187 222 199 133 336 311 246 216 195 192 195 191 186 179 180 180 177 174 174 180 184 185 184 182 184 187 187 187 187 189 191 191 189 190 189 188 189 188 187 187 188 187 187 189 192 192 194 195 196 199 200 202 204 205 206 205 203
253 241 143 109 104 128 131 161 183 165 193 285 226 192 169 171 149 111 131 135 111 143 182 166 155 215 187 173 177 172 185 191 137 54 272 254 224 187 188 199 197 192 185 180 178 176 176 178 181 183 184 186 187 190 191 190 189 187 187 189 190 189 190 191 190 189 190 190 190 190 189 189 190 190 191 193 194 196 200 203 205 206 207 206 202 202
263 243 136 128 120 121 139 201 229 172 147 279 243 191 163 156 138 133 146 151 144 176 192 194 175 191 199 187 184 173 184 191 168 187 222 240 224 195 195 197 187 190 190 184 180 176 177 178 177 180 185 190 194 195 193 191 190 189 188 188 189 190 191 193 193 193 193 192 192 191 191 190 190 190 190 191 193 195 199 203 204 206 207 207 203 202
206 95 95 124 114 116 162 222 232 166 142 242 245 159 147 153 151 152 156 154 137 103 131 200 162 90 246 200 178 170 186 204 197 199 209 220 225 209 203 197 184 187 187 181 181 179 179 178 178 183 190 195 197 195 193 193 193 193 191 190 190 192 193 195 196 196 196 195 193 191 191 192 193 195 192 188 188 191 195 198 201 204 206 207 207 206
196 169 170 150 125 155 199 213 202 173 170 250 202 137 145 150 149 153 146 127 120 101 137 204 174 102 278 194 152 166 190 213 210 204 206 207 213 208 202 200 190 188 186 181 181 181 181 181 184 188 192 196 196 194 195 195 195 196 195 193 193 195 196 196 195 196 197 199 197 193 192 194 197 202 199 191 190 191 191 193 196 200 204 206 207 208
246 206 188 154 148 198 214 206 188 174 203 240 99 95 88 82 76 76 86 89 93 83 184 195 184 132 219 190 156 173 197 215 211 204 205 204 203 198 197 204 194 184 184 186 183 183 184 186 189 190 191 194 195 195 196 195 195 196 196 196 196 197 197 196 194 195 197 200 201 198 196 198 200 203 202 198 195 195 194 195 197 198 202 205 206 208
269 247 173 152 177 196 198 199 189 164 158 119 91 85 68 58 52 45 18 49 77 322 228 189 187 125 109 213 188 185 202 207 200 195 198 198 193 191 195 202 196 182 181 185 185 186 187 188 188 187 188 192 193 193 192 192 195 195 195 196 196 197 197 195 195 196 197 200 204 205 205 206 205 202 201 199 197 198 198 200 202 202 203 203 203 207
304 290 200 212 196 168 151 165 195 165 149 96 90 108 83 41 23 51 1 15 97 270 260 178 171 111 125 241 212 218 269 202 191 192 190 189 185 187 189 183 192 188 178 179 181 184 183 182 182 183 187 189 188 189 190 191 193 194 194 194 193 194 195 195 196 197 199 201 204 208 210 213 213 208 203 201 200 202 203 204 204 204 205 205 204 205
303 237 230 248 208 155 139 100 37 173 158 97 108 116 90 46 6 66 349 324 169 265 299 153 149 118 257 235 202 238 260 249 212 196 185 184 182 182 178 170 179 180 173 175 177 177 176 174 178 182 184 185 187 190 191 191 192 193 194 194 193 193 195 197 198 199 201 204 207 211 216 222 222 218 213 209 207 206 207 207 205 204 206 207 206 205
285 271 265 231 244 174 148 137 136 172 158 134 141 128 106 120 92 102 195 284 241 269 334 133 154 243 279 207 264 259 249 251 229 197 180 180 180 172 163 161 159 153 164 173 176 176 178 180 181 183 184 186 191 193 193 193 193 194 193 195 196 196 197 198 201 203 206 209 212 215 221 229 228 225 222 218 215 212 211 210 208 209 211 210 209 208
186 262 239 188 216 188 164 169 166 156 155 165 162 138 139 156 144 162 188 190 206 223 37 98 171 241 234 178 301 300 74 358 266 176 157 165 168 146 143 144 130 127 140 166 179 180 184 186 184 184 186 189 193 194 194 195 196 196 196 198 199 198 198 199 202 205 208 210 212 215 221 229 231 228 226 224 224 221 218 215 214 217 218 216 215 212
160 244 249 240 210 162 170 183 147 134 152 199 162 116 151 187 153 135 163 156 143 124 85 98 207 246 192 294 305 95 89 52 58 120 134 153 157 136 145 150 136 160 137 148 178 184 186 188 186 186 188 191 194 195 195 196 198 201 202 202 203 203 201 201 203 206 208 209 210 214 220 226 229 228 227 228 227 226 226 227 227 227 226 223 219 216
111 269 273 305 286 184 181 175 157 156 158 148 144 156 193 166 128 117 66 51 98 107 100 158 249 276 27 322 279 115 86 69 89 126 145 159 163 148 153 158 149 161 133 129 168 182 186 187 187 189 190 191 192 195 198 199 202 204 206 206 206 205 204 203 205 207 208 208 209 214 219 223 225 225 226 228 228 228 233 238 240 239 236 231 225 221
153 277 286 257 231 240 188 138 142 173 145 128 178 192 157 59 82 107 98 30 50 105 215 318 297 268 97 309 232 119 89 71 73 120 148 157 166 162 156 158 158 149 130 112 125 156 181 188 190 191 192 193 193 196 200 202 204 206 208 210 209 207 207 206 207 208 210 210 209 213 218 220 222 224 227 228 227 232 239 245 246 243 242 239 233 228
143 268 291 243 202 272 47 110 112 330 94 130 172 163 126 126 183 108 118 140 102 115 231 313 331 280 173 205 218 136 114 95 71 93 148 158 170 172 160 158 159 142 134 133 114 127 170 187 193 193 192 194 195 198 201 202 205 207 209 213 214 213 213 211 210 211 212 214 213 215 218 220 221 223 227 228 228 235 244 250 248 246 246 245 240 239
104 129 288 277 215 357 20 111 158 193 15 46 127 140 103 126 165 151 135 155 134 139 197 116 339 271 204 225 209 147 130 119 109 117 150 166 179 176 166 165 165 153 149 152 137 123 149 176 193 196 193 194 195 197 199 199 204 209 211 214 215 215 215 213 213 214 214 217 217 218 219 222 224 225 228 230 231 236 243 249 250 248 250 250 246 248
66 115 246 290 326 127 168 187 179 169 137 103 134 158 134 72 126 128 80 64 122 136 153 125 274 263 240 267 209 141 126 127 136 137 120 153 184 175 171 169 165 166 163 156 145 129 113 138 173 191 193 194 194 195 195 198 204 208 211 214 214 214 215 216 217 217 218 220 221 221 221 223 226 228 230 232 233 235 238 243 248 248 250 252 251 253
132 135 204 295 349 180 229 250 194 172 156 151 161 175 173 134 119 117 95 317 94 120 150 153 200 265 275 285 188 131 125 128 134 126 98 94 123 144 163 166 161 169 171 157 137 105 63 64 113 166 183 188 191 192 194 198 202 205 208 213 214 214 216 218 220 220 221 222 223 225 226 227 229 231 233 235 236 235 236 237 242 246 249 250 252 256
168 112 135 270 233 211 257 285 215 166 140 134 145 160 158 138 123 132 165 215 105 92 116 116 111 283 279 289 121 124 126 121 118 111 96 86 73 65 79 125 134 136 143 141 125 110 95 75 82 121 157 175 185 191 194 197 200 204 208 210 212 215 218 220 222 223 223 224 226 227 229 231 233 235 237 239 239 237 237 238 239 241 246 249 252 256
113 84 103 271 304 303 299 318 7 80 101 102 61 80 140 145 129 139 157 153 129 140 129 82 64 243 232 294 96 115 117 106 99 97 95 87 70 61 58 73 105 126 133 131 125 125 126 120 103 100 115 142 167 182 190 195 199 203 205 207 211 215 218 221 223 223 223 224 226 228 230 232 235 238 241 244 243 240 239 241 242 242 244 247 251 254
49 67 94 105 21 348 341 9 358 357 66 111 67 8 122 114 103 107 105 82 102 184 159 127 195 211 144 129 111 110 109 99 95 93 90 85 81 78 65 60 81 120 138 137 136 135 130 120 105 98 103 113 135 160 177 186 191 195 198 202 207 210 214 219 221 223 224 224 226 228 230 232 234 237 241 244 246 245 244 245 247 247 245 245 248 251
95 77 81 125 137 169 170 183 220 216 192 75 81 53 111 117 117 122 109 88 124 190 158 143 177 156 134 141 133 124 119 108 105 100 91 88 88 86 69 51 51 50 42 108 134 135 129 120 111 103 101 107 119 135 149 159 166 173 181 189 196 201 206 211 215 218 221 223 224 227 230 233 234 237 239 241 243 245 247 250 252 252 251 249 249 250
102 83 96 140 149 184 194 223 240 171 131 117 96 87 106 123 117 109 108 142 161 152 170 222 168 143 151 158 146 139 133 123 121 112 102 102 99 87 72 56 50 46 34 30 74 108 115 114 109 102 97 96 100 110 119 128 142 155 162 170 181 191 197 201 205 208 211 215 218 224 228 231 234 238 241 243 244 244 245 249 253 256 257 255 255 255
99 41 357 124 119 177 216 249 269 115 114 127 118 115 132 111 106 108 129 182 151 129 211 241 166 151 163 163 150 147 143 133 131 122 113 116 116 105 91 72 60 52 44 39 44 73 93 97 98 97 97 95 92 96 103 114 132 145 149 152 159 171 181 187 192 194 197 204 211 219 225 230 234 238 241 244 247 247 246 245 249 255 258 260 260 260
109 32 327 50 58 36 5 323 326 97 98 75 75 86 71 10 108 119 130 163 142 141 203 189 165 160 159 152 150 153 151 143 134 123 118 119 116 108 96 80 71 59 50 49 46 55 75 83 90 92 91 92 91 89 91 99 112 122 129 144 156 158 163 175 190 195 195 199 208 219 227 233 238 242 244 246 247 249 249 246 247 251 255 258 261 263
110 10 314 305 56 34 17 360 6 82 92 62 46 52 51 46 84 105 105 100 105 121 154 150 148 146 141 147 152 149 144 136 123 117 116 115 109 102 94 86 84 75 61 58 55 56 66 71 79 83 80 79 81 80 81 86 92 97 103 122 147 156 166 178 192 205 208 208 220 236 245 250 253 254 253 249 247 249 252 251 249 250 254 257 260 264
80 352 313 12 60 17 9 9 355 27 93 80 47 34 43 53 65 81 104 101 84 88 120 130 132 128 134 141 138 134 137 129 120 119 115 109 103 101 97 91 91 88 75 68 62 59 65 68 72 76 76 74 74 75 77 80 81 84 86 91 101 117 138 152 154 151 139 129 143 190 233 248 256 259 258 254 249 248 249 252 253 253 255 257 258 259
60 32 334 34 61 343 349 8 340 330 76 74 39 18 21 34 77 90 115 135 125 124 123 128 142 155 150 135 128 134 138 129 125 124 118 112 105 101 101 96 92 89 83 77 69 60 62 66 68 71 72 73 74 75 77 80 81 78 77 78 82 91 103 109 111 108 102 100 103 104 106 114 119 117 125 212 232 236 238 240 244 247 251 254 255 256
101 110 37 60 80 320 329 355 338 338 56 54 351 341 349 8 136 116 9 48 126 134 136 155 167 147 138 134 133 139 139 132 131 128 122 121 112 102 102 101 97 93 89 86 78 65 62 65 70 74 74 73 73 73 74 77 80 81 83 85 84 85 89 90 90 91 89 88 90 90 92 99 104 103 99 104 136 184 202 210 217 224 231 239 245 251
74 99 135 123 102 306 315 341 7 28 63 278 282 267 223 168 119 100 60 49 74 124 128 117 114 120 129 136 138 141 138 130 124 115 110 119 118 111 107 106 104 101 96 93 89 81 75 73 74 78 81 82 80 78 76 76 78 80 85 89 88 83 80 78 75 75 74 74 78 82 87 93 97 98 94 90 99 126 153 171 182 191 204 217 226 237
37 70 136 100 97 155 326 9 40 21 266 271 303 318 155 127 111 99 72 40 17 75 113 110 114 125 129 130 131 128 120 112 103 95 97 107 118 121 120 117 113 109 102 98 94 91 88 85 80 77 79 85 89 89 86 83 83 82 81 84 85 82 79 78 75 71 69 70 73 79 84 89 95 99 96 87 80 79 83 98 133 160 177 192 204 223
98 96 119 68 73 103 29 44 102 237 265 289 338 15 67 88 91 87 66 29 1 54 121 118 119 125 121 120 122 117 112 106 90 73 78 88 97 116 125 127 122 112 106 102 97 94 92 90 88 85 85 88 91 92 89 86 86 85 80 79 79 77 77 77 74 70 68 67 69 73 78 86 96 96 88 78 70 65 64 63 67 96 144 173 144 9
115 121 96 51 39 97 89 354 276 332 316 309 340 355 349 13 72 101 96 20 341 5 128 126 124 125 123 121 120 116 113 106 86 50 35 66 79 93 107 117 119 114 106 102 99 96 95 94 93 94 94 94 92 89 88 88 87 85 80 76 73 72 72 70 66 65 64 61 63 68 71 75 82 82 76 70 66 64 65 66 68 69 58 340 342 10
93 124 141 118 62 78 89 37 350 23 335 275 291 301 289 261 238 139 105 4 328 36 138 138 133 132 130 128 127 128 122 110 106 116 52 83 95 99 101 108 113 113 110 107 104 99 97 97 95 95 96 94 90 89 90 90 88 82 76 70 67 66 66 63 60 63 65 61 59 63 67 68 69 70 69 65 62 62 66 70 71 65 58 61 63 58
48 49 91 102 88 88 104 116 169 140 246 260 277 294 305 301 268 103 71 329 269 170 154 147 140 139 141 141 142 142 132 120 141 187 190 149 132 127 121 114 111 111 110 110 109 104 101 101 99 97 95 91 88 88 89 89 86 79 71 66 64 61 56 53 53 58 63 63 61 60 62 65 65 63 62 60 61 67 71 73 73 71 71 75 75 71
24 19 50 91 101 109 123 157 206 198 242 264 275 289 300 318 41 76 48 287 221 168 165 156 146 143 143 143 145 149 148 153 169 181 170 145 134 132 132 128 124 121 117 113 111 108 106 105 100 95 92 90 89 89 89 88 83 75 68 65 63 56 49 47 48 50 54 58 60 57 54 57 58 58 57 59 66 74 75 73 72 73 73 72 68 64
3 12 63 112 103 82 113 139 228 247 244 256 274 286 297 344 53 82 203 238 184 154 164 159 151 150 150 152 158 166 170 154 146 147 145 137 131 128 130 130 129 126 122 118 116 112 107 102 98 93 90 91 92 89 88 89 81 72 66 63 58 51 47 47 47 46 46 48 51 51 48 48 50 53 58 65 75 81 78 71 68 68 69 68 66 64
4 13 30 75 70 67 117 117 68 270 256 291 295 291 303 53 98 192 229 234 167 153 156 157 158 159 157 154 151 145 131 119 126 136 143 143 139 135 134 132 126 124 122 120 118 116 111 104 100 97 93 92 91 88 87 87 79 69 62 56 48 41 41 44 45 44 43 43 45 45 44 44 43 47 57 68 75 78 74 67 63 61 60 63 66 67
100 86 4 297 142 98 68 65 77 202 242 327 324 318 37 95 210 215 205 12 160 156 150 154 165 165 156 144 126 124 130 130 135 142 143 142 142 139 140 139 133 130 129 123 120 120 116 109 103 100 97 95 92 87 85 84 78 69 60 51 39 27 25 29 33 37 41 44 44 44 43 44 44 46 55 64 67 66 63 58 54 52 52 54 58 62
104 124 168 244 186 116 80 74 189 216 249 293 320 283 262 276 228 184 145 113 139 147 145 152 159 155 148 140 132 134 138 139 142 145 142 142 144 141 140 142 138 135 133 128 125 126 122 116 110 104 100 97 92 85 79 75 72 67 59 48 33 18 12 10 13 20 29 36 40 42 44 47 49 52 56 61 60 57 55 51 46 45 46 46 48 51
223 182 159 166 170 140 174 217 236 249 266 282 260 236 274 309 270 165 150 140 148 156 155 153 149 145 145 144 142 143 148 149 149 151 149 147 146 144 144 143 141 139 135 130 129 130 127 121 117 110 101 95 89 83 75 67 65 64 56 43 27 18 15 11 10 15 22 27 31 36 39 44 51 53 52 53 51 49 49 49 45 42 41 39 40 43
261 180 133 131 259 251 197 253 299 320 320 325 318 278 324 358 8 65 85 110 144 146 133 135 139 132 122 127 139 145 152 154 150 149 150 146 143 146 144 141 140 139 136 133 132 133 130 125 121 114 105 96 87 79 72 64 63 66 58 38 23 19 17 18 24 30 33 34 33 34 35 39 43 43 40 41 43 41 41 45 48 43 35 32 36 38
297 115 99 58 40 69 53 314 326 332 331 344 351 355 5 7 1 10 36 92 120 97 95 102 100 93 92 123 159 160 157 156 150 147 148 145 144 146 143 141 143 144 142 140 140 139 136 131 125 118 110 103 94 84 74 65 62 62 51 31 24 22 18 24 35 40 41 42 42 40 37 35 31 26 22 21 23 26 26 32 46 41 27 21 26 30
294 88 81 55 61 94 243 277 293 298 320 2 17 11 355 348 350 6 23 65 95 93 106 115 118 131 155 165 157 141 136 143 149 148 148 145 145 147 147 147 150 149 147 147 148 147 144 137 131 125 119 113 107 95 80 69 60 50 38 29 26 25 29 39 42 40 41 46 49 46 40 36 32 27 22 17 10 8 11 12 17 24 18 13 14 18
349 35 111 108 54 28 277 287 314 336 352 5 13 6 339 329 353 18 23 42 78 94 109 113 123 162 169 145 125 119 112 91 109 150 149 145 146 151 154 155 155 154 153 153 154 154 149 143 138 133 127 123 121 110 90 74 58 42 34 33 31 32 42 50 47 43 46 51 51 45 39 42 46 46 41 34 25 19 16 11 8 12 13 10 7 6
46 50 124 98 63 4 251 251 139 121 113 331 345 350 337 340 38 43 30 34 50 67 94 100 101 126 143 142 144 147 143 148 168 170 160 153 156 158 161 161 160 159 159 158 158 157 153 149 145 139 133 132 132 123 106 86 66 46 37 36 35 37 44 51 52 53 55 56 50 38 31 37 46 47 45 42 37 35 36 35 39 49 43 24 10 2
102 137 146 120 128 235 247 228 177 128 146 249 289 334 338 5 65 62 48 50 51 49 68 87 98 118 139 154 159 159 159 162 168 168 162 161 166 167 167 168 166 165 165 164 161 158 155 151 147 141 139 142 141 132 119 102 83 61 44 40 42 45 47 51 56 59 62 60 49 31 23 31 36 35 35 36 33 31 30 30 35 48 51 36 19 7